This demonstration page uses our WeatherBlox Daily Observations layout. Learn more.

Left ArrowRight Arrow

47.50024, -111.30081

Hourly Observations for June 6, 2020

Temp ( °F °C ) Dew Point ( °F °C ) Humidity (%) Winds ( mph kmh ) Pressure ( in mb ) Visibility ( mi km ) Precip ( " mm )
12:53 am 00:53 Clear 61 16.1 48 8.9 63 63 SSW 13 20 29.47 998 10 16 0.00 0.00
1:53 am 01:53 Clear 65 18.3 47 8.3 52 52 SSE 6 9 29.44 997 10 16 0.00 0.00
2:53 am 02:53 Clear 72 22.2 46 7.8 40 40 SSE 21 33 29.42 996 10 16 0.00 0.00
3:53 am 03:53 Mostly Clear 69 20.6 48 8.9 47 47 SSW 10 17 29.44 997 10 16 0.00 0.00
4:53 am 04:53 Clear 58 14.4 48 8.9 70 70 NW 8 13 29.47 998 10 16 0.00 0.00
5:53 am 05:53 Mostly Sunny 52 11.1 44 6.7 75 75 NW 14 22 29.52 1000 10 16 0.00 0.00
6:53 am 06:53 Sunny 53 11.7 44 6.7 72 72 WNW 9 15 29.54 1000 10 16 0.00 0.00
7:53 am 07:53 Sunny 56 13.3 45 7.2 67 67 WSW 6 9 29.56 1001 10 16 0.00 0.00
8:53 am 08:53 Sunny 59 15 46 7.8 62 62 SW 7 11 29.57 1001 10 16 0.00 0.00
9:53 am 09:53 Sunny 63 17.2 47 8.3 56 56 W 9 15 29.55 1001 10 16 0.00 0.00
10:53 am 10:53 Mostly Sunny 65 18.3 48 8.9 54 54 E 7 11 29.54 1000 10 16 0.00 0.00
11:53 am 11:53 Mostly Sunny 66 18.9 47 8.3 50 50 E 5 7 29.51 999 10 16 0.00 0.00
12:53 pm 12:53 Mostly Sunny 68 20 49 9.4 51 51 Calm 29.50 999 10 16 0.00 0.00
1:53 pm 13:53 Mostly Cloudy 69 20.6 49 9.4 49 49 NW 7 11 29.49 999 10 16 0.00 0.00
2:53 pm 14:53 Cloudy 67 19.4 47 8.3 49 49 N 10 17 29.45 997 10 16 0.00 0.00
3:53 pm 15:53 Mostly Cloudy 67 19.4 50 10 55 55 N 18 30 29.43 997 10 16 0.00 0.00
4:53 pm 16:53 Cloudy 64 17.8 47 8.3 54 54 N 15 24 29.45 997 10 16 0.00 0.00
5:53 pm 17:53 Cloudy with Light Rain 57 13.9 53 11.7 87 87 NNW 12 19 29.49 999 10 16 0.02 0.51
6:53 pm 18:53 Cloudy with Light Rain 55 12.8 52 11.1 90 90 NNW 13 20 29.48 998 5 8 0.05 1.27
7:20 pm 19:20 Cloudy with Light Rain 55 12.8 52 11.1 90 90 NNW 13 20 29.43 997 10 16 0.04 1.02
7:29 pm 19:29 Cloudy with Light Rain 55 12.8 52 11.1 90 90 NNW 15 24 29.43 997 10 16 0.04 1.02
7:46 pm 19:46 Cloudy with Light Rain 54 12.2 51 10.6 90 90 NW 23 37 29.44 997 10 16 0.04 1.02
7:53 pm 19:53 Cloudy with Light Rain 54 12.2 51 10.6 90 90 NNW 21 33 29.48 998 10 16 0.04 1.02
8:02 pm 20:02 Cloudy with Light Rain 54 12.2 51 10.6 90 90 NW 18 30 29.44 997 10 16 0.00 0.00
8:23 pm 20:23 Cloudy with Light Rain 53 11.7 49 9.4 86 86 NW 22 35 29.44 997 10 16 0.00 0.00
8:35 pm 20:35 Cloudy with Light Rain 52 11.1 48 8.9 86 86 WNW 24 39 29.45 997 10 16 0.00 0.00
8:53 pm 20:53 Cloudy with Rain 51 10.6 48 8.9 89 89 W 23 37 29.51 999 5 8 0.02 0.51
9:00 pm 21:00 Cloudy with Rain 50 10 47 8.3 89 89 WNW 22 35 29.51 999 3 5 0.02 0.51
9:14 pm 21:14 Cloudy with Rain 50 10 47 8.3 89 89 W 15 24 29.54 1000 3 5 0.06 1.52
9:53 pm 21:53 Cloudy with Rain 50 10 47 8.3 89 89 W 7 11 29.54 1000 3 5 0.22 5.59
10:53 pm 22:53 Cloudy with Light Rain 49 9.4 46 7.8 90 90 SW 12 19 29.53 1000 8 13 0.13 3.30
11:53 pm 23:53 Cloudy with Light Rain 48 8.9 45 7.2 89 89 SW 13 20 29.52 1000 10 16 0.04 1.02

Powered by AerisWeather